• Join FlightAware (Why Join?)
  • Login
  • US Flag 
12:30AM EDT


 

Airport Tracker/Info


-or-


 

Live Flight TrackerFlight Track Log ✈ N899B ✈ 30-Apr-2013 ✈ KAPF - KPWK

Flight Track Log - Related Links

Times and Time Zones

All times are in EDT time to prevent confusion due to time zone crossing. See the N899B flight status page for this flight to view local times or setup timezone preferences in your user account.

Time Position Orientation Groundspeed Altitude Reporting Facility
EDT Latitude Longitude Course Direction KTS MPH feet Rate Location/Type
11:13AM 26.0786 -81.7925 329° Northwest 165 190 4,200  Level Miami Center
11:14AM 26.0453 -81.8511 238° Southwest 197 227 6,300 2,220 Climbing Miami Center
11:15AM 26.0447 -81.9250 270° West 210 242 8,700 2,280 Climbing Miami Center
11:16AM 26.0336 -82.0031 261° West 233 268 10,900 2,040 Climbing Miami Center
11:17AM 26.0475 -82.0847 281° West 257 296 12,800 1,920 Climbing Miami Center
11:18AM 26.1205 -82.3637 329° Northwest  Level FlightAware Approximate
11:18AM 26.0653 -82.1686 283° West 262 302 14,800  Level Miami Center
11:19AM 26.0894 -82.2528 288° West 275 316 16,800 1,920 Climbing Miami Center
11:20AM 26.1158 -82.3328 290° West 359 413 18,700 2,040 Climbing Miami Center
11:21AM 26.1633 -82.3997 308° West 318 366 20,900 2,100 Climbing Miami Center
11:22AM 26.2344 -82.4492 328° Northwest 268 308 22,900 1,740 Climbing Miami Center
11:23AM 26.3083 -82.4828 338° Northwest 273 314 24,400 1,500 Climbing Miami Center
11:24AM 26.3864 -82.5144 340° North 287 330 25,900 1,500 Climbing Miami Center
11:25AM 26.4647 -82.5414 343° North 292 336 27,400 1,500 Climbing Miami Center
11:26AM 26.5406 -82.5728 340° North 292 336 28,900 1,440 Climbing Miami Center
11:27AM 26.6147 -82.5972 344° North 284 327 30,300 1,200 Climbing Miami Center
11:28AM 26.6928 -82.6314 339° North 284 327 31,400 1,080 Climbing Miami Center
11:29AM 26.7708 -82.6608 341° North 284 327 32,500 1,020 Climbing Miami Center
11:30AM 26.8511 -82.6928 340° North 289 333 33,500 960 Climbing Miami Center
11:31AM 26.9269 -82.7219 341° North 289 333 34,500 960 Climbing Miami Center
11:32AM 27.0094 -82.7519 342° North 294 338 35,500 900 Climbing Miami Center
11:33AM 27.0872 -82.7839 340° North 299 344 36,300 720 Climbing Miami Center
11:34AM 27.1694 -82.8161 341° North 299 344 37,000 720 Climbing Miami Center
11:35AM 27.2586 -82.8322 351° North 306 352 37,800 720 Climbing Miami Center
11:36AM 27.3475 -82.8461 352° North 311 358 38,500 780 Climbing Miami Center
11:37AM 27.4294 -82.8833 338° Northwest 315 362 39,400 660 Climbing Miami Center
11:38AM 27.5094 -82.9178 339° North 310 357 39,900 180 Climbing Miami Center
11:40AM 27.6783 -82.9956 338° Northwest 318 366 40,000  Climbing Jacksonville Center
11:41AM 27.7703 -83.0217 346° North 330 380 40,000  Level Jacksonville Center
11:42AM 27.8744 -83.0194 North 355 409 40,000  Level Jacksonville Center
11:43AM 27.9808 -83.0219 359° North 360 414 40,000  Level Jacksonville Center
11:44AM 28.0728 -83.0242 359° North 366 421 40,000  Level Jacksonville Center
11:45AM 28.1792 -83.0267 359° North 371 427 40,000 300 Level Jacksonville Center
11:46AM 28.2833 -83.0269 360° North 371 427 40,700 660 Climbing Jacksonville Center
11:47AM 28.3814 -83.0294 359° North 360 414 41,400 600 Climbing Jacksonville Center
11:48AM 28.4669 -83.0556 345° North 337 388 42,000 540 Climbing Jacksonville Center
11:49AM 28.5567 -83.0794 347° North 332 382 42,500 420 Climbing Jacksonville Center
11:50AM 28.6444 -83.1056 345° North 327 376 42,900 240 Climbing Jacksonville Center
11:51AM 28.7361 -83.1317 346° North 327 376 43,000  Climbing Jacksonville Center
11:52AM 28.8278 -83.1581 346° North 327 376 43,000  Level Jacksonville Center
11:53AM 28.9217 -83.1867 345° North 339 390 43,000  Level Jacksonville Center
11:54AM 29.0136 -83.2131 346° North 339 390 43,000  Level Jacksonville Center
11:55AM 29.1117 -83.2419 346° North 344 396 43,000  Level Jacksonville Center
11:56AM 29.2075 -83.2686 346° North 344 396 43,000  Level Jacksonville Center
11:57AM 29.3033 -83.2975 345° North 344 396 43,000  Level Jacksonville Center
11:58AM 29.3994 -83.3264 345° North 349 402 43,000  Level Jacksonville Center
11:59AM 29.4975 -83.3556 345° North 354 407 43,000  Level Jacksonville Center
12:00PM 29.5911 -83.3847 345° North 354 407 43,000  Level Jacksonville Center
12:01PM 29.6892 -83.4139 346° North 354 407 43,000  Level Jacksonville Center
12:02PM 29.7850 -83.4431 345° North 354 407 43,000  Level Jacksonville Center
12:03PM 29.8811 -83.4675 348° North 354 407 43,000  Level Jacksonville Center
12:04PM 29.9769 -83.4969 345° North 354 407 43,000  Level Jacksonville Center
12:05PM 30.0728 -83.5261 345° North 354 407 43,000  Level Jacksonville Center
12:06PM 30.1667 -83.5533 346° North 354 407 43,000  Level Jacksonville Center
12:07PM 30.2606 -83.5803 346° North 354 407 43,000  Level Jacksonville Center
12:08PM 30.3542 -83.6100 345° North 349 402 43,000  Level Jacksonville Center
12:09PM 30.4461 -83.6347 347° North 349 402 43,000  Level Jacksonville Center
12:10PM 30.5397 -83.6619 346° North 343 395 43,000  Level Jacksonville Center
12:11PM 30.6356 -83.6917 345° North 333 383 43,000  Level Jacksonville Center
12:12PM 30.7294 -83.7214 345° North 338 389 43,000  Level Jacksonville Center
12:13PM 30.8211 -83.7489 346° North 338 389 43,000  Level Jacksonville Center
12:14PM 30.9128 -83.7764 346° North 338 389 43,000  Level Jacksonville Center
12:15PM 31.0044 -83.8039 346° North 338 389 43,000  Level Jacksonville Center
12:16PM 31.0961 -83.8339 344° North 338 389 43,000  Level Jacksonville Center
12:17PM 31.1878 -83.8592 347° North 338 389 43,000  Level Jacksonville Center
12:19PM 31.3897 -83.9244 345° North 338 389 43,000  Level Atlanta Center
12:20PM 31.4794 -83.9536 345° North 324 373 43,000  Level Atlanta Center
12:21PM 31.5692 -83.9803 346° North 325 374 43,000  Level Atlanta Center
12:22PM 31.6631 -84.0072 346° North 325 374 43,000  Level Atlanta Center
12:23PM 31.7550 -84.0364 345° North 330 380 43,000  Level Atlanta Center
12:24PM 31.8447 -84.0633 346° North 330 380 43,000  Level Atlanta Center
12:25PM 31.9344 -84.0903 346° North 335 386 43,000  Level Atlanta Center
12:26PM 32.0242 -84.1172 346° North 335 386 43,000  Level Atlanta Center
12:27PM 32.1161 -84.1442 346° North 335 386 43,000  Level Atlanta Center
12:28PM 32.2078 -84.1739 345° North 335 386 43,000  Level Atlanta Center
12:29PM 32.2789 -84.1961 345° North 335 386 43,000  Level Atlanta Center
12:30PM 32.3747 -84.2258 345° North 335 386 43,000  Level Atlanta Center
12:31PM 32.4644 -84.2531 346° North 335 386 43,000  Level Atlanta Center
12:32PM 32.5542 -84.2828 344° North 335 386 43,000  Level Atlanta Center
12:33PM 32.6417 -84.3103 345° North 335 386 43,000  Level Atlanta Center
12:34PM 32.7314 -84.3375 346° North 330 380 43,000  Level Atlanta Center
12:35PM 32.8275 -84.3675 345° North 325 374 43,000  Level Atlanta Center
12:36PM 32.9169 -84.3978 344° North 325 374 43,000  Level Atlanta Center
12:37PM 33.0067 -84.4253 346° North 325 374 43,000  Level Atlanta Center
12:38PM 33.0944 -84.4528 345° North 319 367 43,000  Level Atlanta Center
12:39PM 33.1736 -84.4781 345° North 319 367 43,000  Level Atlanta Center
12:40PM 33.2672 -84.5083 345° North 329 379 43,000  Level Atlanta Center
12:41PM 33.3550 -84.5386 344° North 329 379 43,000  Level Atlanta Center
12:42PM 33.4467 -84.5667 346° North 329 379 43,000  Level Atlanta Center
12:43PM 33.5383 -84.5972 344° North 334 384 43,000  Level Atlanta Center
12:44PM 33.6383 -84.6278 346° North 340 391 43,000  Level Atlanta Center
12:45PM 33.7300 -84.6583 345° North 340 391 43,000  Level Atlanta Center
12:46PM 33.8217 -84.6889 345° North 340 391 43,000  Level Atlanta Center
12:47PM 33.9133 -84.7147 347° North 340 391 43,000  Level Atlanta Center
12:48PM 34.0031 -84.7481 343° North 335 386 43,000  Level Atlanta Center
12:49PM 34.0947 -84.7764 346° North 335 386 43,000  Level Atlanta Center
12:50PM 34.1822 -84.8047 345° North 346 398 43,000  Level Atlanta Center
12:51PM 34.2758 -84.8356 345° North 346 398 43,000  Level Atlanta Center
12:52PM 34.3675 -84.8617 347° North 336 387 43,000  Level Atlanta Center
12:53PM 34.4592 -84.8953 343° North 336 387 43,000  Level Atlanta Center
12:54PM 34.5550 -84.9242 346° North 336 387 43,000  Level Atlanta Center
12:55PM 34.6550 -84.9581 344° North 336 387 43,000  Level Atlanta Center
12:56PM 34.7422 -84.9892 344° North 331 381 43,000  Level Atlanta Center
12:57PM 34.8361 -85.0181 346° North 336 387 43,000  Level Atlanta Center
12:58PM 34.9275 -85.0522 343° North 336 387 43,000  Level Atlanta Center
12:59PM 35.0211 -85.0811 346° North 336 387 43,000  Level Atlanta Center
01:00PM 35.1147 -85.1128 345° North 336 387 43,000  Level Atlanta Center
01:01PM 35.2083 -85.1419 346° North 336 387 43,000  Level Atlanta Center
01:02PM 35.3019 -85.1739 344° North 336 387 43,000  Level Atlanta Center
01:03PM 35.3956 -85.2083 343° North 336 387 43,000  Level Atlanta Center
01:04PM 35.5511 -85.2586 345° North 349 402 43,000  Level Memphis Center
01:05PM 35.6464 -85.2911 345° North 354 407 43,000  Level Memphis Center
01:06PM 35.7417 -85.3236 345° North 354 407 43,000  Level Memphis Center
01:07PM 35.8367 -85.3561 344° North 354 407 43,000  Level Memphis Center
01:08PM 35.9339 -85.3886 345° North 354 407 43,000  Level Memphis Center
01:09PM 36.0269 -85.4192 345° North 354 407 43,000  Level Memphis Center
01:10PM 36.1264 -85.4542 344° North 354 407 43,000  Level Memphis Center
01:11PM 36.2192 -85.4872 344° North 354 407 43,000  Level Memphis Center
01:12PM 36.3144 -85.5200 345° North 354 407 43,000  Level Memphis Center
01:13PM 36.4114 -85.5506 346° North 354 407 43,000  Level Memphis Center
01:14PM 36.4342 -85.5586 344° North 357 411 43,000  Level Indianapolis Center
01:15PM 36.5500 -85.5981 345° North 358 412 43,000  Level Indianapolis Center
01:16PM 36.6458 -85.6311 345° North 357 411 43,000  Level Indianapolis Center
01:16PM 36.6986 -85.6497 344° North 354 407 43,000  Level Memphis Center
01:17PM 36.7939 -85.6856 343° North 359 413 43,000  Level Memphis Center
01:19PM 36.9347 -85.7300 346° North 353 406 43,000  Level Indianapolis Center
01:20PM 37.0336 -85.7461 353° North 354 407 43,000  Level Indianapolis Center
01:21PM 37.1317 -85.7669 350° North 351 404 43,000  Level Indianapolis Center
01:22PM 37.2300 -85.7864 351° North 354 407 43,000  Level Indianapolis Center
01:23PM 37.3375 -85.8094 350° North 357 411 43,000  Level Indianapolis Center
01:24PM 37.4331 -85.8325 349° North 351 404 43,000  Level Indianapolis Center
01:25PM 37.5339 -85.8744 342° North 346 398 43,000  Level Indianapolis Center
01:26PM 37.6208 -85.9067 344° North 355 409 43,000  Level Indianapolis Center
01:27PM 37.7139 -85.9419 343° North 350 403 43,000  Level Indianapolis Center
01:29PM 37.8249 -85.9824 344° North  Level FlightAware Approximate
01:29PM 37.9197 -86.0192 344° North 351 404 43,000  Level Indianapolis Center
01:30PM 38.0119 -86.0556 343° North 349 402 43,000 -840 Level Indianapolis Center
01:31PM 38.1089 -86.0922 343° North 361 415 41,300 -2,040 Descending Indianapolis Center
01:32PM 38.2142 -86.1333 343° North 390 449 38,900 -2,460 Descending Indianapolis Center
01:33PM 38.3158 -86.1722 343° North 384 442 36,300 -2,640 Descending Indianapolis Center
01:34PM 38.4164 -86.2122 343° North 380 437 33,500 -2,100 Descending Indianapolis Center
01:36PM 38.5369 -86.2597 343° North 378 435 32,000 -1,020 Descending Indianapolis Center
01:37PM 38.6397 -86.2989 343° North 383 441 31,500 -960 Descending Indianapolis Center
01:38PM 38.7431 -86.3386 343° North 389 448 30,100 -780 Descending Indianapolis Center
01:39PM 38.8472 -86.3806 343° North 390 449 30,000 -60 Descending Indianapolis Center
01:40PM 38.9519 -86.4219 343° North 393 452 30,000 -60 Level Indianapolis Center
01:41PM 39.0558 -86.4625 343° North 391 450 29,900 -360 Descending Indianapolis Center
01:42PM 39.1614 -86.5033 343° North 393 452 29,300 -480 Descending Indianapolis Center
01:43PM 39.2886 -86.5550 343° North 400 460 29,000 -180 Descending Indianapolis Center
01:44PM 39.3922 -86.5956 343° North 389 448 29,000  Level Indianapolis Center
01:45PM 39.4956 -86.6381 342° North 389 448 29,000 -60 Level Indianapolis Center
01:46PM 39.5967 -86.6786 343° North 381 438 28,900 -540 Descending Indianapolis Center
01:47PM 39.6975 -86.7192 343° North 380 437 27,900 -1,140 Descending Indianapolis Center
01:48PM 39.8008 -86.7597 343° North 383 441 26,600 -1,080 Descending Indianapolis Center
01:49PM 39.9014 -86.7869 348° North 377 434 25,700 -1,020 Descending Indianapolis Center
01:50PM 40.0194 -86.7858 360° North 356 410 24,500 -840 Descending Indianapolis Center
01:51PM 40.1150 -86.8394 337° Northwest 369 425 24,000 -540 Descending Indianapolis Center
01:52PM 40.1717 -86.8672 339° North 368 423 23,600 -2,040 Descending Chicago Center
01:53PM 40.2611 -86.9131 339° North 353 406 20,500 -3,120 Descending Chicago Center
01:54PM 40.3650 -86.9689 338° Northwest 342 394 17,200 -2,880 Descending Chicago Center
01:55PM 40.4506 -87.0133 338° Northwest 335 386 14,600 -2,280 Descending Chicago Center
01:56PM 40.5356 -87.0589 338° Northwest 333 383 12,600 -1,500 Descending Chicago Center
01:57PM 40.6203 -87.1019 339° North 331 381 11,600 -780 Descending Chicago Center
01:58PM 40.7069 -87.1478 338° Northwest 334 384 11,100 -300 Descending Chicago Center
01:59PM 40.8081 -87.2008 338° Northwest 331 381 11,100 -240 Level Chicago Center
02:00PM 40.8936 -87.2444 339° North 331 381 10,700 -540 Descending Chicago Center
02:01PM 40.9794 -87.2781 344° North 332 382 10,100 -1,020 Descending Chicago Center
02:02PM 41.0667 -87.2769 North 322 371 8,700 -1,500 Descending Chicago Center
02:03PM 41.1489 -87.2775 360° North 305 351 7,000 -1,920 Descending Chicago Center
02:04PM 41.2456 -87.2775 360° North 296 341 4,800 -1,500 Descending Chicago Center
02:05PM 41.3258 -87.2769 360° North 294 338 3,900 -480 Descending Chicago Center
02:06PM 41.4033 -87.2775 360° North 289 333 3,900  Level Chicago Center
02:06PM 41.4333 -87.2833 352° North 288 331 3,900  Level Chicago TRACON
02:07PM 41.5167 -87.2833 360° North 291 335 3,900  Level Chicago TRACON
02:08PM 41.6000 -87.3000 351° North 286 329 3,900  Level Chicago TRACON
02:09PM 41.6489 -87.3244 340° North 289 333 3,900 -360 Level Chicago Center
02:10PM 41.7211 -87.3592 340° North 283 326 3,300 -480 Descending Chicago Center
02:11PM 41.7900 -87.3942 339° North 277 319 3,000 -180 Descending Chicago Center
02:12PM 41.8547 -87.4278 339° North 266 306 3,000  Level Chicago Center
02:13PM 41.9158 -87.4592 339° North 254 292 3,000  Level Chicago Center
02:14PM 41.9767 -87.4906 339° North 244 281 3,000  Level Chicago Center
02:15PM 42.0517 -87.5292 339° North 242 278 3,000  Level Chicago Center
02:17PM 42.1167 -87.5667 337° Northwest 230 265 3,000  Level Chicago TRACON
02:18PM 42.1833 -87.6000 340° North 224 258 3,000  Level Chicago TRACON
02:19PM 42.2167 -87.6500 312° West 214 246 3,000  Level Chicago TRACON
02:20PM 42.2547 -87.7033 314° West 219 252 3,000  Level Chicago Center
02:21PM 42.2842 -87.7833 296° West 212 244 3,000  Level Chicago Center
02:22PM 42.2931 -87.8564 279° West 205 236 3,000 -240 Level Chicago Center
02:23PM 42.2953 -87.9219 273° West 192 221 2,600 -300 Descending Chicago Center
02:24PM 42.2744 -87.9675 238° Southwest 178 205 2,500 -60 Descending Chicago Center
02:25PM 42.2256 -87.9625 176° South 178 205 2,500 -300 Level Chicago Center
02:26PM 42.1831 -87.9408 159° South 169 194 1,900 -480 Descending Chicago Center
02:27PM 42.1378 -87.9150 157° South 164 189 1,600 -300 Descending Chicago Center
02:29PM 42.1143 -87.9015 160° South  Level Estimated